Weather History for KLBT - July, 2013

Change the Weather History Date:

Saturday, July 20, 2013

  Actual Average Record
Temperature  
Mean Temperature 83 °F 81 °F  
Max Temperature 91 °F 91 °F 99 °F (2011)
Min Temperature 75 °F 72 °F 66 °F (2003)
Degree Days  
Heating Degree Days 0 0  
Month to date heating degree days 0 0  
Since 1 June heating degree days 0 0  
Since 1 July heating degree days 0 0  
Cooling Degree Days 18 16  
Month to date cooling degree days 317 320  
Year to date cooling degree days 910 958  
Since 1 June cooling degree days 718 708  
Growing Degree Days 32 (Base 50)    
Moisture  
Dew Point 72 °F    
Average Humidity 73    
Maximum Humidity 94    
Minimum Humidity 52    
Precipitation  
Precipitation 0.00 in 0.21 in 0.33 in (2012)
Month to date precipitation 5.20 3.31  
Year to date precipitation 30.39 22.72  
Sea Level Pressure  
Sea Level Pressure 30.02 in    
Wind  
Wind Speed 8 mph (SSW)    
Max Wind Speed 18 mph    
Max Gust Speed 23 mph    
Visibility 10 miles    
Events      
T = Trace of Precipitation, MM = Missing Value Source: NWS Daily Summary

Daily Weather History Graph

Daily Weather History Graph

Search for Another Location

Airport or City:

Trip Planner

Search our weather history database for the weather conditions in past years. The results will help you decide how hot, cold, wet, or windy it might be!

Date:

Astronomy

Jul. 20, 2013 Rise Set
Actual Time 6:18 AM EDT 8:26 PM EDT
Civil Twilight 5:49 AM EDT 8:55 PM EDT
Nautical Twilight 5:14 AM EDT 9:29 PM EDT
Astronomical Twilight 4:37 AM EDT 10:07 PM EDT
Moon 6:29 PM EDT (7/20) 3:55 AM EDT (7/20)
Length of Visible Light 15h 05m
Length of Day
14h 08m
Waxing Gibbous, 93% of the Moon is Illuminated
Jul 20
Waxing Gibbous
Jul 22
Full
Jul 29
Last Quarter
Aug 6
New
Aug 14
First Quarter

Hourly Weather History & Observations

Time (EDT) Temp. Heat Index Dew Point Humidity Pressure Visibility Wind Dir Wind Speed Gust Speed Precip Events Conditions
12:54 AM 77.0 °F - 73.0 °F 88% 30.06 in 10.0 mi SSW 5.8 mph - N/A   Clear
1:54 AM 75.9 °F - 73.0 °F 91% 30.05 in 10.0 mi SSW 6.9 mph - N/A   Clear
2:54 AM 75.9 °F - 73.0 °F 91% 30.04 in 10.0 mi SSW 8.1 mph - N/A   Clear
3:54 AM 75.0 °F - 73.0 °F 94% 30.04 in 10.0 mi SSW 5.8 mph - N/A   Partly Cloudy
4:54 AM 75.0 °F - 73.0 °F 94% 30.04 in 10.0 mi SSW 5.8 mph - N/A   Partly Cloudy
5:11 AM 75.2 °F - 73.4 °F 94% 30.05 in 10.0 mi SSW 5.8 mph - N/A   Mostly Cloudy
5:54 AM 75.0 °F - 72.0 °F 90% 30.04 in 10.0 mi SSW 8.1 mph - N/A   Partly Cloudy
6:54 AM 75.0 °F - 72.0 °F 90% 30.04 in 10.0 mi SW 6.9 mph - N/A   Clear
7:54 AM 77.0 °F - 72.0 °F 84% 30.06 in 10.0 mi SW 8.1 mph - N/A   Clear
8:54 AM 80.1 °F 83.6 °F 71.1 °F 74% 30.07 in 10.0 mi SW 10.4 mph - N/A   Scattered Clouds
9:54 AM 82.9 °F 87.5 °F 71.1 °F 67% 30.06 in 10.0 mi SSW 12.7 mph - N/A   Clear
10:54 AM 86.0 °F 90.7 °F 70.0 °F 59% 30.06 in 10.0 mi SW 11.5 mph 17.3 mph N/A   Clear
11:54 AM 88.0 °F 92.1 °F 69.1 °F 53% 30.05 in 10.0 mi WSW 11.5 mph - N/A   Clear
12:54 PM 87.1 °F 92.0 °F 70.0 °F 57% 30.04 in 10.0 mi SW 8.1 mph - N/A   Mostly Cloudy
1:54 PM 88.0 °F 92.9 °F 70.0 °F 55% 30.01 in 10.0 mi SSW 10.4 mph 18.4 mph N/A   Mostly Cloudy
2:54 PM 89.1 °F 95.0 °F 71.1 °F 55% 29.99 in 10.0 mi SSW 11.5 mph - N/A   Mostly Cloudy
3:54 PM 90.0 °F 95.4 °F 70.0 °F 52% 29.96 in 10.0 mi SSW 9.2 mph - N/A   Scattered Clouds
4:54 PM 88.0 °F 93.8 °F 71.1 °F 57% 29.95 in 10.0 mi SW 6.9 mph - N/A   Overcast
5:54 PM 89.1 °F 94.1 °F 70.0 °F 53% 29.95 in 10.0 mi SW 8.1 mph - N/A   Mostly Cloudy
6:54 PM 84.0 °F 89.6 °F 72.0 °F 67% 29.96 in 10.0 mi South 11.5 mph 19.6 mph N/A   Mostly Cloudy
7:54 PM 80.1 °F 83.8 °F 72.0 °F 76% 29.98 in 10.0 mi SSW 8.1 mph - N/A   Partly Cloudy
8:54 PM 78.1 °F - 71.1 °F 79% 29.99 in 10.0 mi SSW 8.1 mph - N/A   Clear
9:54 PM 77.0 °F - 72.0 °F 84% 30.01 in 10.0 mi SSW 4.6 mph - N/A   Partly Cloudy
10:54 PM 75.9 °F - 73.0 °F 91% 30.02 in 10.0 mi Calm Calm - N/A   Clear
11:54 PM 75.9 °F - 73.0 °F 91% 30.03 in 10.0 mi SSW 5.8 mph - N/A   Clear